Theta_e
313 312 311 311 313 315 318 318 318 319 319 319 320 321 321 321 321 321 321 321 320 321 324 327 336 344 346 351 351 350 351 351 349 352 352 349 349 351 350 350 349 348 342 348
313 312 311 312 313 315 317 319 319 319 319 319 320 320 321 321 321 322 322 322 322 322 326 327 327 330 336 344 351 351 346 335 335 343 344 344 344 347 349 349 344 337 345 346
315 316 314 314 317 318 318 318 319 319 319 319 320 321 321 321 321 321 322 322 323 323 326 328 328 328 327 330 344 353 351 345 345 335 330 328 324 344 347 347 347 345 346 346
317 317 317 317 318 318 319 318 318 319 319 320 320 320 321 320 320 321 321 323 324 324 326 328 328 328 327 326 330 342 352 346 349 350 342 339 342 347 347 345 344 343 343 344
316 317 318 318 317 318 319 319 319 320 321 321 320 320 320 320 320 321 321 322 326 327 326 325 325 325 326 325 326 331 337 347 349 350 348 348 347 347 348 343 345 345 348 349
317 317 317 316 316 319 319 319 319 320 320 321 320 320 320 320 320 321 323 326 327 327 327 327 325 323 323 323 323 329 332 341 345 347 348 349 349 348 351 347 348 347 344 341
318 318 318 319 319 320 319 321 322 321 320 319 320 320 320 321 321 324 326 327 328 329 329 329 329 328 324 324 327 327 338 342 344 346 346 348 350 350 351 348 347 342 338 335
319 320 319 318 319 319 320 321 321 321 321 320 320 319 319 322 327 325 326 327 328 329 331 331 331 329 327 325 327 333 336 344 347 349 348 349 350 349 348 346 341 337 333 332
322 320 319 319 319 319 320 321 321 322 321 321 320 321 321 325 326 326 326 327 329 330 330 331 332 330 329 329 333 338 342 345 347 347 348 348 347 343 340 335 334 331 329 329
322 325 321 323 322 321 320 322 323 322 323 323 321 321 321 325 324 326 326 327 327 327 328 329 331 332 332 334 337 337 338 340 341 340 339 338 334 332 332 333 332 331 332 330
322 323 324 322 323 323 323 323 324 326 325 326 325 323 326 325 325 326 326 326 325 325 324 325 326 327 329 331 332 331 330 329 330 330 330 331 331 331 332 332 332 333 333 332
325 325 329 324 324 323 325 325 326 331 328 327 326 327 328 328 326 326 325 325 325 324 324 323 322 322 323 324 325 327 328 328 328 329 330 331 331 331 332 331 331 331 330 329
326 329 332 331 328 325 325 325 326 327 329 330 332 329 327 328 327 326 326 326 325 325 325 325 324 324 323 323 323 323 322 322 323 324 325 327 327 327 328 328 328 328 327 326
323 328 328 332 328 327 328 326 325 327 334 330 328 326 327 325 324 324 325 325 326 324 323 323 324 325 322 321 320 320 319 318 318 319 320 322 322 321 322 321 321 321 321 321
324 326 325 324 322 322 322 323 323 324 325 326 323 320 319 318 318 317 317 318 319 320 321 321 322 323 321 320 317 316 315 314 315 315 315 316 315 315 315 316 316 317 317 317
321 325 322 322 318 318 319 319 319 319 318 318 318 317 316 316 318 319 319 319 319 319 319 319 319 318 316 315 315 313 313 312 312 312 312 312 312 312 312 312 313 313 313 313
319 318 319 315 315 315 315 314 314 315 315 314 315 318 320 319 319 317 318 318 319 318 316 316 315 315 313 313 312 311 310 310 310 310 309 309 309 309 309 309 309 309 310 310
317 317 316 315 316 317 317 315 316 319 318 319 321 320 318 317 316 315 315 315 314 314 314 313 313 312 311 310 309 308 308 308 308 308 308 308 307 307 307 306 306 307 307 307
314 315 319 319 318 316 315 319 320 320 321 321 320 319 319 318 316 316 313 311 312 311 311 310 310 309 309 308 308 307 307 307 307 306 306 305 305 304 304 304 305 305 306 306
315 317 318 318 319 319 321 318 318 319 322 320 318 317 317 316 319 317 313 310 310 310 309 309 308 307 308 307 306 306 306 305 305 305 304 303 303 304 304 305 305 304 304 305
317 317 320 318 318 317 317 317 316 322 323 318 317 316 316 316 314 312 311 311 310 309 308 307 307 307 306 306 304 304 304 304 303 302 302 302 302 302 303 303 303 303 303 303
319 320 320 319 320 318 316 317 319 321 318 317 316 315 315 313 311 310 310 311 309 309 307 306 306 305 304 303 302 302 302 302 302 301 301 301 301 302 302 302 301 298 297 296
319 317 320 318 318 318 317 318 317 317 316 315 314 313 312 311 311 310 309 308 308 306 305 304 303 302 302 301 301 301 301 300 300 300 300 300 300 300 299 297 295 295 296 296
314 316 317 316 316 316 316 316 316 315 314 313 311 310 309 309 308 307 307 306 305 304 303 301 301 302 302 301 300 299 299 298 298 298 298 298 294 294 295 296 296 295 295 295
313 314 314 314 314 313 314 312 311 311 309 308 307 307 306 306 305 305 305 304 303 302 301 300 300 300 300 299 298 298 297 295 295 294 292 292 293 293 294 293 293 294 294 295
311 312 313 314 315 314 313 311 308 308 307 306 305 305 303 303 303 303 303 302 300 298 297 297 298 298 297 296 295 294 292 291 290 291 291 291 292 292 292 293 294 295 295 296
Wind_Speed
16 12 16 19 17 15 4 8 10 11 8 10 14 12 14 13 9 13 14 14 14 16 14 10 9 13 19 19 20 22 21 24 22 26 18 12 16 16 21 20 15 13 22 18
10 16 14 10 13 12 11 11 12 12 6 5 9 14 14 10 8 6 9 10 11 15 17 8 9 13 14 19 32 26 23 30 24 18 14 7 5 15 17 16 22 4 24 16
12 2 13 14 13 12 12 13 12 13 11 13 15 16 14 7 6 3 6 5 5 11 17 13 7 10 15 15 19 27 30 29 26 28 26 19 12 16 26 25 17 18 27 18
14 10 11 17 14 13 13 12 13 14 13 11 5 11 4 1 6 5 0 4 5 5 13 14 12 14 15 29 22 19 22 32 27 20 22 30 28 29 26 21 17 19 18 14
12 12 16 14 16 13 13 8 10 13 13 13 15 9 11 2 11 7 3 3 7 7 5 11 13 18 27 24 23 20 20 22 25 26 25 24 28 20 11 15 16 15 11 11
15 12 13 18 15 10 3 7 9 9 11 13 16 15 12 10 6 3 1 5 7 8 9 9 7 11 17 17 18 18 24 24 24 23 24 26 21 18 17 17 17 15 14 14
14 13 12 8 11 14 9 9 7 10 10 11 7 8 12 6 3 2 5 6 7 7 7 9 8 6 6 10 12 14 18 19 20 21 22 22 19 21 21 23 22 20 18 15
12 13 18 15 18 13 16 14 10 9 10 10 8 7 5 5 3 1 2 4 5 8 9 10 10 9 8 5 5 10 13 14 14 18 17 17 18 18 18 18 19 18 16 15
12 12 6 8 17 19 16 9 14 15 9 9 6 10 6 8 7 4 3 4 7 9 10 12 11 10 7 3 1 4 7 10 15 15 18 19 19 17 17 17 18 16 14 14
9 4 12 11 7 7 15 6 10 10 17 17 10 8 8 11 8 4 3 4 6 7 10 11 12 14 13 11 11 11 12 13 14 15 15 16 17 17 16 15 16 14 14 14
12 10 8 8 11 10 8 11 11 9 6 10 11 2 11 7 2 3 3 5 5 7 7 9 11 13 14 16 15 14 14 13 13 13 13 12 11 11 12 12 11 11 12 13
5 5 7 11 4 3 5 9 7 8 13 8 9 7 5 4 2 2 4 4 5 4 5 7 8 10 11 11 12 10 9 8 7 7 8 9 9 7 7 7 7 7 9 11
6 6 8 6 12 9 10 11 9 6 4 12 10 4 5 6 3 2 3 4 0 2 2 3 5 7 9 9 9 10 10 9 7 6 6 6 4 3 1 3 4 7 9 13
2 6 6 1 3 2 11 10 13 12 9 12 13 12 11 6 3 4 4 7 8 5 7 7 6 4 5 8 10 9 9 10 8 6 5 5 5 4 4 5 7 9 12 15
1 5 5 1 1 2 2 6 9 10 11 11 11 12 10 10 13 14 15 14 14 14 11 11 5 4 3 2 7 5 7 10 8 8 7 7 7 6 7 8 10 12 15 17
1 4 6 11 4 8 13 14 15 16 15 16 15 16 14 9 10 11 10 12 12 12 6 3 2 7 8 9 7 6 9 10 9 8 8 9 10 12 13 15 17 19 21 22
3 4 5 9 2 6 10 16 18 16 14 11 12 4 8 6 6 5 4 6 6 7 4 5 6 7 8 8 8 9 9 10 10 11 11 13 14 17 18 20 21 23 25 27
3 4 3 2 3 7 6 2 1 4 2 3 2 3 1 3 3 6 9 8 7 6 5 5 5 6 7 7 7 9 10 12 13 14 16 17 18 20 22 23 24 26 27 29
4 4 2 3 4 8 5 3 1 3 2 4 6 2 2 2 4 3 6 7 6 5 5 4 5 6 7 8 9 12 14 15 16 18 19 20 20 23 24 25 26 27 28 29
3 3 3 3 2 3 6 3 1 1 6 6 2 2 4 3 7 4 3 1 3 4 3 5 7 9 10 11 13 15 17 18 19 19 20 21 22 23 25 26 27 27 27 28
4 4 7 5 4 5 6 5 2 5 3 3 3 5 5 6 5 4 5 5 4 5 6 8 11 12 14 15 16 18 19 20 20 21 22 23 23 24 24 25 24 23 25 26
7 7 5 7 6 7 5 5 6 4 2 3 4 3 4 4 5 7 9 9 8 9 12 14 15 16 17 17 18 19 20 20 20 21 23 23 22 22 22 22 23 23 22 23
5 4 3 6 2 3 1 4 4 4 4 4 5 5 7 9 10 9 10 11 11 14 16 18 18 19 19 18 17 19 21 20 22 22 22 21 22 22 21 21 22 23 21 21
5 4 4 3 5 1 3 3 3 3 5 4 6 7 8 11 12 14 14 14 14 16 16 18 19 19 18 16 19 19 20 19 20 21 21 20 20 21 22 21 19 20 20 20
3 3 6 8 6 3 5 5 5 4 3 4 5 7 9 11 14 15 14 14 14 17 17 19 21 21 21 19 18 18 17 18 20 20 19 19 19 19 20 20 20 21 24 23
7 8 5 3 4 3 3 3 3 5 6 7 9 10 9 12 15 15 14 16 19 19 21 23 23 21 20 20 19 17 18 17 17 18 17 18 19 19 19 20 22 20 25 26
Wind_Direction
186 197 207 205 211 240 257 250 249 259 261 273 275 274 287 287 256 243 235 243 228 227 226 204 192 194 196 203 214 197 180 188 192 211 197 227 247 226 213 217 211 224 217 219
176 223 207 210 206 229 239 251 253 267 270 259 265 292 283 267 266 269 232 223 221 214 215 206 178 176 197 210 210 196 199 204 211 189 179 177 225 249 237 229 219 247 256 213
218 204 188 200 197 218 230 248 258 267 268 280 260 268 252 215 233 259 276 261 216 215 223 223 220 186 179 266 226 211 202 202 203 202 210 216 266 250 223 217 218 211 209 209
225 199 192 196 212 216 243 230 248 268 266 260 182 273 145 232 278 208 51 22 8 259 218 240 249 225 189 207 226 233 223 211 208 216 205 185 195 201 216 216 207 198 200 209
207 213 210 211 210 218 254 254 257 254 253 259 244 244 266 163 240 187 173 6 10 353 302 276 266 245 228 224 216 208 217 213 209 204 203 198 211 218 202 194 195 182 188 200
217 209 218 221 215 221 176 240 230 252 251 241 242 243 250 224 222 154 124 7 11 353 331 321 266 255 260 257 249 222 210 207 199 201 202 209 208 203 183 187 186 180 175 178
215 215 216 234 199 199 213 234 227 217 219 242 224 228 245 69 117 328 333 348 7 0 9 353 348 317 247 239 239 235 221 199 192 197 198 198 195 191 190 175 179 172 178 179
214 210 215 209 225 228 210 226 245 235 238 232 144 228 228 101 119 94 22 6 8 19 21 16 14 1 340 288 254 242 224 209 191 192 185 182 186 188 191 174 173 175 177 184
212 215 153 199 217 224 220 226 247 277 269 286 259 168 203 169 165 159 99 66 44 38 31 29 35 41 46 60 229 218 203 190 186 176 169 176 176 173 173 167 169 175 181 189
237 199 213 148 190 205 242 247 207 227 254 245 233 226 272 172 178 152 124 77 65 59 56 53 47 47 59 77 94 107 122 128 137 142 143 149 156 158 168 173 180 183 190 192
215 245 185 188 208 199 183 224 234 293 271 252 260 281 27 62 114 167 125 100 83 74 67 65 64 62 59 79 87 92 99 109 123 131 138 148 153 159 169 180 188 192 197 204
208 205 264 234 40 268 271 278 275 222 246 261 287 271 89 85 85 191 155 138 109 86 62 63 67 62 68 77 79 76 70 79 91 113 126 135 145 156 167 181 195 212 226 234
184 205 223 219 211 213 236 214 252 254 253 237 241 249 108 100 126 160 236 144 231 325 329 340 21 21 24 41 62 81 68 61 56 80 98 95 110 130 163 242 248 251 252 251
266 214 230 276 352 191 212 224 231 239 249 255 250 251 159 163 228 253 255 266 259 272 303 301 303 335 38 49 27 38 68 68 58 54 60 60 44 17 333 300 284 275 267 263
272 252 246 176 297 324 293 222 210 237 253 261 273 286 295 301 297 289 292 285 273 269 273 285 309 332 328 39 79 55 46 46 31 30 20 14 359 342 319 302 291 285 277 272
153 227 268 259 258 270 266 256 252 255 260 266 268 274 271 301 316 299 306 299 277 266 277 326 128 91 82 72 73 42 24 33 8 359 342 330 322 313 305 298 292 286 282 280
207 226 233 256 91 281 262 246 241 249 250 265 259 327 1 331 358 345 7 17 37 62 99 91 83 75 68 65 43 25 2 353 341 331 315 307 301 294 290 288 285 281 279 277
167 194 189 249 225 229 65 46 252 275 243 193 291 303 16 24 42 54 36 62 69 66 73 61 45 51 41 25 12 347 333 323 315 307 302 298 295 292 291 288 285 284 281 278
249 202 210 242 243 319 190 158 221 281 180 212 262 197 262 347 304 128 56 19 18 18 7 20 15 358 342 336 331 321 313 308 304 300 298 297 296 295 292 289 287 284 283 281
174 273 215 174 246 267 85 120 296 279 250 94 293 346 343 255 246 91 81 54 325 328 339 336 327 317 313 313 311 304 302 302 299 299 298 296 294 291 289 289 288 288 286 285
171 187 208 190 237 275 101 152 234 238 81 77 336 325 312 308 347 317 278 296 300 305 296 307 298 301 301 305 304 297 298 295 300 299 297 295 295 293 291 289 288 290 291 291
171 183 192 212 218 248 118 178 242 28 341 342 329 343 310 279 279 289 297 304 309 304 305 302 301 298 300 301 299 296 295 301 300 298 295 293 293 293 292 292 292 291 289 288
214 219 198 204 233 104 186 311 346 321 328 346 330 352 322 306 303 311 304 305 302 303 303 303 302 300 298 300 300 298 298 302 299 296 295 297 296 294 296 292 291 288 284 281
221 208 236 227 186 330 325 324 343 346 338 360 343 322 319 310 308 304 303 304 303 302 305 307 303 298 300 300 300 296 299 300 299 297 295 297 299 294 290 287 285 283 279 275
54 206 245 250 258 315 67 53 16 11 5 341 325 317 309 306 304 306 303 303 303 305 307 310 307 301 300 303 301 303 303 304 298 297 294 290 288 291 291 286 283 278 279 273
218 242 246 302 62 323 357 350 352 327 331 325 316 313 321 322 312 309 306 317 319 309 304 300 300 301 304 307 305 308 306 300 291 292 294 294 295 295 292 291 293 288 282 288